Change the Weather History Date:

Monday, April 1, 2013

  Actual Average (KGUS) Record (KGUS)
Temperature  
Mean Temperature 35 °F -  
Max Temperature 42 °F 55 °F 80 °F (2003)
Min Temperature 28 °F 36 °F 23 °F (2011)
Degree Days  
Heating Degree Days 30    
Moisture  
Dew Point 22 °F    
Average Humidity 57    
Maximum Humidity 75    
Minimum Humidity 34    
Precipitation  
Precipitation 0.00 in - - ()
Sea Level Pressure  
Sea Level Pressure 30.02 in    
Wind  
Wind Speed 12 mph (NW)    
Max Wind Speed 20 mph    
Max Gust Speed 26 mph    
Visibility 10 miles    
Events      
Averages and records for this station are not official NWS values.
T = Trace of Precipitation, MM = Missing Value Source: NWS Daily Summary

Daily Weather History Graph

Daily Weather History Graph

Search for Another Location

Airport or City:

Trip Planner

Search our weather history database for the weather conditions in past years. The results will help you decide how hot, cold, wet, or windy it might be!

Date:

Astronomy

Apr. 01, 2013 Rise Set
Actual Time 6:27 AM CDT 7:09 PM CDT
Civil Twilight 5:59 AM CDT 7:36 PM CDT
Nautical Twilight 5:27 AM CDT 8:09 PM CDT
Astronomical Twilight 4:53 AM CDT 8:43 PM CDT
Moon 12:17 AM CDT (4/1) 10:12 AM CDT (4/1)
Length of Visible Light 13h 36m
Length of Day
12h 41m
Waning Gibbous, 67% of the Moon is Illuminated
Apr 1
Waning Gibbous
Apr 2
Last Quarter
Apr 10
New
Apr 18
First Quarter
Apr 25
Full

Hourly Weather History & Observations

Time (CDT) Temp. Windchill Dew Point Humidity Pressure Visibility Wind Dir Wind Speed Gust Speed Precip Events Conditions
12:15 AM 39.2 °F 30.5 °F 28.4 °F 65% 29.83 in 10.0 mi WNW 16.1 mph - N/A   Clear
12:35 AM 39.2 °F 30.8 °F 30.2 °F 70% 29.84 in 10.0 mi NW 15.0 mph 19.6 mph N/A   Clear
12:55 AM 39.2 °F 31.2 °F 28.4 °F 65% 29.84 in 10.0 mi WNW 13.8 mph 19.6 mph N/A   Clear
1:15 AM 39.2 °F 31.2 °F 28.4 °F 65% 29.85 in 10.0 mi NW 13.8 mph - N/A   Scattered Clouds
1:35 AM 37.4 °F 28.5 °F 26.6 °F 65% 29.85 in 10.0 mi NW 15.0 mph - N/A   Mostly Cloudy
1:55 AM 37.4 °F 29.8 °F 26.6 °F 65% 29.86 in 10.0 mi NW 11.5 mph - N/A   Partly Cloudy
2:15 AM 37.4 °F 28.9 °F 26.6 °F 65% 29.85 in 10.0 mi NW 13.8 mph - N/A   Clear
2:35 AM 37.4 °F 29.3 °F 26.6 °F 65% 29.86 in 10.0 mi NW 12.7 mph 19.6 mph N/A   Clear
2:55 AM 35.6 °F 27.5 °F 28.4 °F 75% 29.86 in 10.0 mi NW 11.5 mph - N/A   Clear
3:15 AM 35.6 °F 28.0 °F 26.6 °F 70% 29.88 in 10.0 mi NW 10.4 mph - N/A   Partly Cloudy
3:35 AM 35.6 °F 27.5 °F 28.4 °F 75% 29.88 in 10.0 mi NNW 11.5 mph - N/A   Clear
3:55 AM 35.6 °F 27.5 °F 26.6 °F 70% 29.89 in 10.0 mi NNW 11.5 mph - N/A   Clear
4:15 AM 35.6 °F 27.1 °F 24.8 °F 65% 29.90 in 10.0 mi NW 12.7 mph - N/A   Clear
4:35 AM 35.6 °F 27.5 °F 26.6 °F 70% 29.90 in 10.0 mi NNW 11.5 mph - N/A   Clear
4:55 AM 35.6 °F 27.5 °F 24.8 °F 65% 29.92 in 10.0 mi NNW 11.5 mph - N/A   Clear
5:15 AM 33.8 °F 25.8 °F 24.8 °F 70% 29.93 in 10.0 mi NNW 10.4 mph - N/A   Clear
5:35 AM 33.8 °F 25.8 °F 26.6 °F 75% 29.94 in 10.0 mi NNW 10.4 mph - N/A   Clear
5:55 AM 33.8 °F 26.4 °F 24.8 °F 70% 29.95 in 10.0 mi NNW 9.2 mph - N/A   Clear
6:15 AM 32.0 °F 24.8 °F 24.8 °F 75% 29.96 in 10.0 mi NNW 8.1 mph - N/A   Clear
6:35 AM 32.0 °F 26.4 °F 24.8 °F 75% 29.98 in 10.0 mi NNW 5.8 mph - N/A   Clear
6:55 AM 32.0 °F 26.4 °F 24.8 °F 75% 29.99 in 10.0 mi North 5.8 mph - N/A   Partly Cloudy
7:15 AM 33.8 °F 30.8 °F 26.6 °F 75% 30.00 in 10.0 mi NNW 3.5 mph - N/A   Scattered Clouds
7:35 AM 33.8 °F 29.6 °F 26.6 °F 75% 30.01 in 10.0 mi NW 4.6 mph - N/A   Partly Cloudy
7:55 AM 35.6 °F 30.7 °F 24.8 °F 65% 30.01 in 10.0 mi NW 5.8 mph - N/A   Scattered Clouds
8:15 AM 35.6 °F 28.6 °F 26.6 °F 70% 30.02 in 10.0 mi North 9.2 mph - N/A   Mostly Cloudy
8:35 AM 35.6 °F 30.7 °F 24.8 °F 65% 30.02 in 10.0 mi NNW 5.8 mph - N/A   Mostly Cloudy
8:55 AM 35.6 °F 28.6 °F 23.0 °F 60% 30.03 in 10.0 mi North 9.2 mph - N/A   Overcast
9:15 AM 35.6 °F 28.6 °F 24.8 °F 65% 30.04 in 10.0 mi NW 9.2 mph - N/A   Mostly Cloudy
9:35 AM 37.4 °F 30.8 °F 24.8 °F 60% 30.04 in 10.0 mi NNW 9.2 mph - N/A   Mostly Cloudy
9:55 AM 37.4 °F 29.8 °F 24.8 °F 60% 30.04 in 10.0 mi NW 11.5 mph 17.3 mph N/A   Overcast
10:15 AM 37.4 °F 30.3 °F 21.2 °F 52% 30.05 in 10.0 mi NW 10.4 mph 18.4 mph N/A   Mostly Cloudy
10:35 AM 39.2 °F 30.8 °F 23.0 °F 52% 30.05 in 10.0 mi NNW 15.0 mph 20.7 mph N/A   Mostly Cloudy
10:55 AM 39.2 °F 31.2 °F 19.4 °F 45% 30.06 in 10.0 mi NNW 13.8 mph 23.0 mph N/A   Overcast
11:15 AM 39.2 °F 31.2 °F 21.2 °F 49% 30.06 in 10.0 mi NNW 13.8 mph 18.4 mph N/A   Overcast
11:35 AM 39.2 °F 30.5 °F 23.0 °F 52% 30.06 in 10.0 mi NW 16.1 mph - N/A   Overcast
12:15 PM 39.2 °F 31.6 °F 19.4 °F 45% 30.07 in 10.0 mi NNW 12.7 mph - N/A   Overcast
12:35 PM 41.0 °F 32.5 °F 23.0 °F 49% 30.07 in 10.0 mi NW 17.3 mph 23.0 mph N/A   Overcast
1:15 PM 41.0 °F 33.9 °F 19.4 °F 42% 30.07 in 10.0 mi NW 12.7 mph 20.7 mph N/A   Overcast
1:35 PM 42.8 °F 37.0 °F 21.2 °F 42% 30.06 in 10.0 mi NNW 10.4 mph - N/A   Mostly Cloudy
2:15 PM 42.8 °F 34.8 °F 19.4 °F 39% 30.06 in 10.0 mi WNW 17.3 mph 24.2 mph N/A   Mostly Cloudy
2:35 PM 41.0 °F 33.1 °F 19.4 °F 42% 30.06 in 10.0 mi NW 15.0 mph 20.7 mph N/A   Mostly Cloudy
3:15 PM 41.0 °F 33.5 °F 19.4 °F 42% 30.06 in 10.0 mi NW 13.8 mph 19.6 mph N/A   Mostly Cloudy
3:35 PM 42.8 °F 36.2 °F 19.4 °F 39% 30.06 in 10.0 mi NW 12.7 mph 20.7 mph N/A   Mostly Cloudy
3:55 PM 42.8 °F 34.5 °F 19.4 °F 39% 30.06 in 10.0 mi NW 18.4 mph 25.3 mph N/A   Mostly Cloudy
4:15 PM 41.0 °F 33.9 °F 19.4 °F 42% 30.06 in 10.0 mi NW 12.7 mph - N/A   Partly Cloudy
4:35 PM 42.8 °F 34.3 °F 19.4 °F 39% 30.05 in 10.0 mi WNW 19.6 mph - N/A   Scattered Clouds
4:55 PM 42.8 °F 35.8 °F 15.8 °F 34% 30.06 in 10.0 mi WNW 13.8 mph - N/A   Mostly Cloudy
5:15 PM 41.0 °F 33.1 °F 17.6 °F 39% 30.06 in 10.0 mi WNW 15.0 mph 19.6 mph N/A   Scattered Clouds
5:35 PM 42.8 °F 35.4 °F 17.6 °F 36% 30.06 in 10.0 mi WNW 15.0 mph 21.9 mph N/A   Mostly Cloudy
5:55 PM 41.0 °F 32.2 °F 17.6 °F 39% 30.06 in 10.0 mi WNW 18.4 mph 26.5 mph N/A   Scattered Clouds
6:15 PM 41.0 °F 33.5 °F 15.8 °F 36% 30.07 in 10.0 mi WNW 13.8 mph 19.6 mph N/A   Clear
6:35 PM 39.2 °F 30.2 °F 15.8 °F 39% 30.07 in 10.0 mi NW 17.3 mph - N/A   Clear
6:55 PM 39.2 °F 31.2 °F 15.8 °F 39% 30.08 in 10.0 mi WNW 13.8 mph - N/A   Clear
7:15 PM 37.4 °F 28.9 °F 15.8 °F 41% 30.08 in 10.0 mi NW 13.8 mph - N/A   Clear
7:35 PM 35.6 °F 27.1 °F 17.6 °F 48% 30.08 in 10.0 mi WNW 12.7 mph - N/A   Clear
7:55 PM 35.6 °F 27.1 °F 17.6 °F 48% 30.09 in 10.0 mi WNW 12.7 mph - N/A   Clear
8:15 PM 35.6 °F 28.6 °F 17.6 °F 48% 30.10 in 10.0 mi NW 9.2 mph - N/A   Clear
8:35 PM 33.8 °F 27.7 °F 19.4 °F 56% 30.11 in 10.0 mi NNW 6.9 mph - N/A   Clear
8:55 PM 33.8 °F 27.7 °F 17.6 °F 52% 30.11 in 10.0 mi North 6.9 mph - N/A   Clear
9:15 PM 32.0 °F 26.4 °F 17.6 °F 55% 30.12 in 10.0 mi NNW 5.8 mph - N/A   Clear
9:35 PM 32.0 °F 27.5 °F 19.4 °F 60% 30.13 in 10.0 mi North 4.6 mph - N/A   Clear
9:55 PM 30.2 °F 24.3 °F 17.6 °F 60% 30.13 in 10.0 mi NNW 5.8 mph - N/A   Clear
10:15 PM 30.2 °F 26.7 °F 19.4 °F 64% 30.13 in 10.0 mi NNW 3.5 mph - N/A   Clear
10:35 PM 28.4 °F - 19.4 °F 69% 30.13 in 10.0 mi Calm Calm - N/A   Clear
10:55 PM 28.4 °F 24.6 °F 19.4 °F 69% 30.14 in 10.0 mi WNW 3.5 mph - N/A   Clear
11:15 PM 28.4 °F 23.3 °F 19.4 °F 69% 30.14 in 10.0 mi West 4.6 mph - N/A   Clear
11:35 PM 28.4 °F 24.6 °F 19.4 °F 69% 30.14 in 10.0 mi West 3.5 mph - N/A   Clear
11:55 PM 28.4 °F 24.6 °F 19.4 °F 69% 30.14 in 10.0 mi NW 3.5 mph - N/A   Clear